{"data":{"norad_id":60546,"intl_designator":"2024-149CG","name":"ICEYE-X39","alt_names":[],"object_type":"PAYLOAD","status":"ACTIVE","operator":null,"country":"BRAZ","launch_date":"2024-08-16","launch_site_code":"AFWTR","launch_vehicle":null,"mission":null,"orbit_class":"UNKNOWN","rcs_meters":null,"size_class":null,"mass_kg":null,"dimensions":null,"purposes":[],"wikipedia_slug":null,"has_3d_model":false,"image_url":null,"decayed_at":null,"tle_current":{"epoch":"2026-05-25T04:38:19.213152Z","epoch_age_seconds":54515,"freshness":"FRESH","line1":"1 60546U 24149CG  26145.19327793  .00002399  00000+0  19907-3 0  9991","line2":"2 60546  97.6785 222.5317 0003168 168.2511 191.8786 14.99730919 96679","mean_motion":14.99730919,"eccentricity":0.0003168,"inclination_deg":97.6785,"raan_deg":222.5317,"arg_perigee_deg":168.2511,"mean_anomaly_deg":191.8786,"bstar":0.00019907,"rev_number":9667,"period_min":96.017224273817,"perigee_km":565.52658744856,"apogee_km":569.92748690251,"semimajor_km":6945.8640371755,"source":"CELESTRAK","updated_at":"2026-05-25T13:38:02.150745Z"}}}